Location: Bouillancy
(49.1149°N, 2.9308°E)
Time: 22:33:29
(UTC+00:00)

ATLAS 3B R/B - Pass Details

Date: 30 September 2020
Orbit: 1016 x 1179 km, 63.8° (Epoch: 04 October)

Event Time Altitude Azimuth Distance (km) Brightness Sun altitude
Rises 19:16:24 0° 317° (NW) 3,838 6.7 -18.3°
Reaches altitude 10° 19:19:03 10° 313° (NW) 2,901 5.9 -18.7°
Maximum altitude 19:25:43 56° 238° (WSW) 1,292 3.3 -19.8°
Enters shadow 19:31:51 14° 164° (SSE) 2,732 4.5 -20.7°
